Regional Weather Roundup
Issued by NWS Green Bay, WI

Home | Current Version | Previous Version | Graphics & Text | Print | Product List | Glossary Off
Versions: 1 2 3 4 5 6 7 8 9 10 11 12 13 14 15 16 17 18 19 20 21 22 23 24 25 26 27 28 29 30 31 32 33 34 35 36 37 38 39 40 41 42 43 44 45 46 47 48 49 50

000
ASUS43 KGRB 252059
RWRGRB

NORTH-CENTRAL AND NORTHEAST WISCONSIN REGIONAL WEATHER ROUNDUP
NATIONAL WEATHER SERVICE GREEN BAY WI
300 PM CST TUE NOV 25 2014

WIZ005-009-010>012-018-019-252200-
NORTH CENTRAL WISCONSIN

CITY           SKY/WX    TMP DP  RH WIND       PRES   REMARKS
IRONWOOD       CLEAR     19  12  73 SW8       29.95R WCI   9
MANITOWISH WTR NOT AVBL
ARBOR VITAE    NOT AVBL
EAGLE RIVER    NOT AVBL
LAND O LAKES   NOT AVBL
RHINELANDER    PTSUNNY   19  11  70 W9        29.97S WCI   8
PHILLIPS       NOT AVBL
ANTIGO         NOT AVBL
TOMAHAWK       NOT AVBL
MERRILL        NOT AVBL
$$

WIZ013-073-252200-
NORTHEAST WISCONSIN

CITY           SKY/WX    TMP DP  RH WIND       PRES   REMARKS
IRON MOUNTAIN  MOCLDY    24  11  57 W9        29.97R
MARINETTE      CLOUDY    27  14  59 NW5       30.02R
$$

WIZ017-030-035>037-045-252200-
CENTRAL WISCONSIN

CITY           SKY/WX    TMP DP  RH WIND       PRES   REMARKS
MEDFORD        NOT AVBL
WAUSAU         MOSUNNY   17  11  77 W6        30.02R WCI   9
MOSINEE        PTSUNNY   19  16  86 W6        30.03R
MARSHFIELD     SUNNY     21  12  68 W6        30.03R
WISC RAPIDS    MOSUNNY   22  14  71 CALM      30.07R
STEVENS POINT  NOT AVBL
WAUPACA        NOT AVBL
SHAWANO        NOT AVBL
CLINTONVILLE   NOT AVBL
$$

WIZ038-039-048-051-252200-
FOX VALLEY

CITY           SKY/WX    TMP DP  RH WIND       PRES   REMARKS
NWS GREEN BAY  CLOUDY    24  16  71 W13       30.06R
APPLETON       CLOUDY    21  16  79 W14       30.06R WCI   8
OSHKOSH        CLOUDY    22  15  75 VRB5      30.07R
FOND DU LAC    CLOUDY    22  15  75 W8        30.08R
$$

WIZ022-050-052-252200-
EAST CENTRAL WISCONSIN

CITY           SKY/WX    TMP DP  RH WIND       PRES   REMARKS
STURGEON BAY   CLOUDY    25  16  68 W8        30.03R
MANITOWOC      NOT AVBL
SHEBOYGAN      CLOUDY    22  15  75 W15       30.07R WCI   9
$$

LMZ563-521-522-541>543-252200-
LAKESHORE

STATION/POSITION TIME  TEMP    WIND        PRES    VSBY  WAVE
                       AIR SEA DIR/SP/G                  HT/PER
                 (UTC) (F)     (DEG/KT/KT) (MB)    (MI)  (FT/S)
SHEBOYGAN LKSHOR 2000   23 36  280/ 10/ 12 1019.2R
KEWAUNEE LKSHORE 2000   23     260/  9/ 14 1016.3R
NORTHPORT PIER   2000   26     290/  6/ 12 1015.6R
N MID LAKE BUOY  2000   29 42  290/ 14/ 17 1015.8R         3/ 5
SISTER BAY LKSHO 2000          360/ 13/ 15   N/A
CHAMBERS ISLAND  2000   27     310/  5/ 10 1015.9R
MENOMINEE LKSHOR 2000   27     250/  7/ 11 1017.0R
$$



USA.gov is the U.S. government's official web portal to all federal, state and local government web resources and services.